VLG1004 LEBL-LEMD

Flight info

Callsign VLG1004
Flight time 0h 52m
Altitude 29000
Route SENIA Z596 NEXAS N975 ADUXO
Aircraft A319/M-SDE3FGHIRWY/LB1

Departure

Time 2026-05-07 10:01
Airport Josep Tarradellas Barcelona-El Prat Airport (LEBL)

Arrival

Time 2026-05-07 10:53
Airport Adolfo Suárez Madrid–Barajas Airport (LEMD)
Time Latitude Longitude Altitude Speed Heading
2026-05-07 10:00 41.25244 2.18499 5077 ft 269 kts 185°
2026-05-07 10:01 41.23369 2.18240 6129 ft 273 kts 188°
2026-05-07 10:01 41.21469 2.17989 7156 ft 277 kts 186°
2026-05-07 10:01 41.19540 2.17842 8215 ft 279 kts 184°
2026-05-07 10:01 41.17583 2.17784 9253 ft 283 kts 182°
2026-05-07 10:02 41.15600 2.17779 10272 ft 287 kts 181°
2026-05-07 10:02 41.13541 2.17794 10824 ft 307 kts 181°
2026-05-07 10:02 41.11321 2.17815 11229 ft 330 kts 181°
2026-05-07 10:02 41.08985 2.17838 11937 ft 339 kts 181°
2026-05-07 10:03 41.06623 2.17860 12897 ft 341 kts 181°
2026-05-07 10:03 41.04233 2.17882 13801 ft 345 kts 181°
2026-05-07 10:03 41.01819 2.17903 14627 ft 348 kts 181°
2026-05-07 10:03 40.99385 2.17926 15437 ft 352 kts 181°
2026-05-07 10:04 40.96926 2.17947 16246 ft 355 kts 181°
2026-05-07 10:04 40.94444 2.17967 17035 ft 359 kts 181°
2026-05-07 10:04 40.91939 2.17966 17817 ft 361 kts 185°
2026-05-07 10:04 40.89478 2.17317 18571 ft 361 kts 201°
2026-05-07 10:05 40.87281 2.15744 19290 ft 361 kts 218°
2026-05-07 10:05 40.85524 2.13386 20029 ft 362 kts 234°
2026-05-07 10:05 40.84361 2.10432 20765 ft 365 kts 250°
2026-05-07 10:05 40.83900 2.07131 21461 ft 370 kts 266°
2026-05-07 10:06 40.83981 2.03712 22167 ft 374 kts 269°
2026-05-07 10:06 40.84087 2.00275 22913 ft 375 kts 269°
2026-05-07 10:06 40.84188 1.96823 23580 ft 377 kts 269°
2026-05-07 10:06 40.84284 1.93353 24130 ft 380 kts 269°
2026-05-07 10:07 40.84379 1.89851 24672 ft 383 kts 269°
2026-05-07 10:07 40.84472 1.86326 25189 ft 385 kts 269°
2026-05-07 10:07 40.84565 1.82776 25714 ft 388 kts 268°
2026-05-07 10:07 40.84657 1.79200 26218 ft 391 kts 268°
2026-05-07 10:08 40.84749 1.75603 26712 ft 394 kts 268°
2026-05-07 10:08 40.84840 1.71982 27206 ft 396 kts 268°
2026-05-07 10:08 40.84930 1.68335 27685 ft 398 kts 268°
2026-05-07 10:08 40.84889 1.64681 28119 ft 400 kts 265°
2026-05-07 10:09 40.84797 1.61006 28565 ft 402 kts 264°
2026-05-07 10:09 40.84698 1.57291 28967 ft 405 kts 264°
2026-05-07 10:09 40.84599 1.53574 29011 ft 406 kts 264°
2026-05-07 10:10 40.84405 1.46138 29013 ft 405 kts 264°
2026-05-07 10:10 40.84209 1.38752 29011 ft 405 kts 264°
2026-05-07 10:11 40.84005 1.31312 29012 ft 406 kts 264°
2026-05-07 10:11 40.83796 1.23815 29011 ft 406 kts 264°
2026-05-07 10:12 40.83584 1.16424 29016 ft 406 kts 264°
2026-05-07 10:12 40.83365 1.08927 29013 ft 406 kts 264°
2026-05-07 10:13 40.83143 1.01485 29019 ft 406 kts 264°
2026-05-07 10:13 40.82916 0.94049 29012 ft 406 kts 264°
2026-05-07 10:14 40.82684 0.86587 29005 ft 406 kts 264°
2026-05-07 10:14 40.82448 0.79147 29007 ft 406 kts 264°
2026-05-07 10:15 40.82208 0.71739 29008 ft 406 kts 264°
2026-05-07 10:15 40.81960 0.64246 29005 ft 406 kts 264°
2026-05-07 10:16 40.81711 0.56849 29008 ft 406 kts 264°
2026-05-07 10:16 40.81456 0.49404 29004 ft 406 kts 264°
2026-05-07 10:17 40.81196 0.41958 29003 ft 406 kts 264°
2026-05-07 10:17 40.80930 0.34511 28998 ft 406 kts 264°
2026-05-07 10:18 40.80662 0.27076 29001 ft 406 kts 264°
2026-05-07 10:18 40.80386 0.19629 28996 ft 406 kts 263°
2026-05-07 10:19 40.80107 0.12189 28995 ft 405 kts 263°
2026-05-07 10:19 40.79824 0.04754 28988 ft 406 kts 263°
2026-05-07 10:20 40.79535 -0.02675 28992 ft 406 kts 263°
2026-05-07 10:20 40.79241 -0.10120 28986 ft 406 kts 263°
2026-05-07 10:21 40.78942 -0.17547 28988 ft 404 kts 263°
2026-05-07 10:21 40.78639 -0.24987 28985 ft 406 kts 263°
2026-05-07 10:22 40.78332 -0.32414 28984 ft 406 kts 263°
2026-05-07 10:22 40.78018 -0.39859 28978 ft 406 kts 263°
2026-05-07 10:23 40.77702 -0.47292 28982 ft 405 kts 263°
2026-05-07 10:23 40.77380 -0.54719 28981 ft 406 kts 263°
2026-05-07 10:24 40.77052 -0.62159 28981 ft 406 kts 264°
2026-05-07 10:24 40.76721 -0.69601 28975 ft 406 kts 264°
2026-05-07 10:25 40.76383 -0.77044 28982 ft 406 kts 264°
2026-05-07 10:25 40.76042 -0.84484 28979 ft 407 kts 264°
2026-05-07 10:26 40.75695 -0.91925 28978 ft 406 kts 264°
2026-05-07 10:26 40.75344 -0.99359 28972 ft 407 kts 263°
2026-05-07 10:27 40.74988 -1.06805 28974 ft 407 kts 264°
2026-05-07 10:27 40.74627 -1.14241 28970 ft 406 kts 263°
2026-05-07 10:28 40.74247 -1.21670 28974 ft 406 kts 262°
2026-05-07 10:28 40.73200 -1.28946 28973 ft 403 kts 252°
2026-05-07 10:29 40.71329 -1.35902 28975 ft 403 kts 248°
2026-05-07 10:29 40.69382 -1.42829 28971 ft 403 kts 248°
2026-05-07 10:30 40.66460 -1.53200 28972 ft 403 kts 248°
2026-05-07 10:30 40.64501 -1.60107 28967 ft 403 kts 248°
2026-05-07 10:31 40.62538 -1.67012 28955 ft 402 kts 248°
2026-05-07 10:31 40.60576 -1.73894 28966 ft 403 kts 248°
2026-05-07 10:32 40.58604 -1.80794 28975 ft 402 kts 248°
2026-05-07 10:32 40.56629 -1.87685 28971 ft 403 kts 248°
2026-05-07 10:33 40.55645 -1.91110 28781 ft 398 kts 248°
2026-05-07 10:33 40.54671 -1.94499 28010 ft 394 kts 248°
2026-05-07 10:33 40.53704 -1.97856 27123 ft 391 kts 248°
2026-05-07 10:33 40.52744 -2.01185 26219 ft 387 kts 248°
2026-05-07 10:34 40.51804 -2.04414 25354 ft 382 kts 247°
2026-05-07 10:34 40.50657 -2.07601 24482 ft 378 kts 241°
2026-05-07 10:34 40.49762 -2.09595 23892 ft 376 kts 238°
2026-05-07 10:34 40.48386 -2.12505 22974 ft 372 kts 238°
2026-05-07 10:35 40.47035 -2.15395 21990 ft 370 kts 239°
2026-05-07 10:35 40.45699 -2.18259 21044 ft 367 kts 239°
2026-05-07 10:35 40.44367 -2.21112 20126 ft 365 kts 239°
2026-05-07 10:35 40.43042 -2.23945 19235 ft 363 kts 239°
2026-05-07 10:36 40.41705 -2.26799 18348 ft 362 kts 239°
2026-05-07 10:36 40.40386 -2.29612 17437 ft 359 kts 239°
2026-05-07 10:36 40.39085 -2.32382 16598 ft 355 kts 238°
2026-05-07 10:36 40.37799 -2.35118 15783 ft 351 kts 238°
2026-05-07 10:37 40.36523 -2.37834 15088 ft 345 kts 238°
2026-05-07 10:37 40.35298 -2.40437 14869 ft 326 kts 238°
2026-05-07 10:37 40.34141 -2.42891 14700 ft 307 kts 238°
2026-05-07 10:37 40.33053 -2.45201 14559 ft 290 kts 238°
2026-05-07 10:38 40.32021 -2.47390 14432 ft 275 kts 238°
2026-05-07 10:38 40.31043 -2.49462 14295 ft 259 kts 238°
2026-05-07 10:38 40.30119 -2.51415 14124 ft 247 kts 238°
2026-05-07 10:38 40.29210 -2.53339 13718 ft 244 kts 238°
2026-05-07 10:39 40.28298 -2.55264 12947 ft 255 kts 238°
2026-05-07 10:39 40.27338 -2.57289 12068 ft 268 kts 238°
2026-05-07 10:39 40.26326 -2.59430 11301 ft 277 kts 238°
2026-05-07 10:39 40.25386 -2.61626 10755 ft 276 kts 250°
2026-05-07 10:40 40.25155 -2.64088 10210 ft 276 kts 277°
2026-05-07 10:40 40.25819 -2.66428 9657 ft 277 kts 302°
2026-05-07 10:40 40.26666 -2.68665 9070 ft 273 kts 282°
2026-05-07 10:40 40.26807 -2.71135 8375 ft 276 kts 266°
2026-05-07 10:41 40.26641 -2.73689 7380 ft 289 kts 263°
2026-05-07 10:41 40.26445 -2.76366 6503 ft 298 kts 264°
2026-05-07 10:41 40.26310 -2.79095 5936 ft 293 kts 266°
2026-05-07 10:41 40.26233 -2.81692 5698 ft 277 kts 267°
2026-05-07 10:42 40.26191 -2.84116 5779 ft 257 kts 268°
2026-05-07 10:42 40.26160 -2.86515 5961 ft 272 kts 268°
2026-05-07 10:42 40.26131 -2.88994 5979 ft 271 kts 268°
2026-05-07 10:42 40.26104 -2.91469 5979 ft 274 kts 268°
2026-05-07 10:43 40.26074 -2.93946 5981 ft 272 kts 268°
2026-05-07 10:43 40.26041 -2.96481 5981 ft 271 kts 268°
2026-05-07 10:43 40.26011 -2.98698 5976 ft 272 kts 268°
2026-05-07 10:43 40.25979 -3.01145 5980 ft 271 kts 268°
2026-05-07 10:44 40.25947 -3.03616 5976 ft 272 kts 268°
2026-05-07 10:44 40.25914 -3.06083 5976 ft 272 kts 268°
2026-05-07 10:44 40.25883 -3.08493 5975 ft 262 kts 268°
2026-05-07 10:44 40.25853 -3.10839 5977 ft 247 kts 268°
2026-05-07 10:45 40.25892 -3.12989 5971 ft 233 kts 277°
2026-05-07 10:45 40.26274 -3.14979 5974 ft 221 kts 291°
2026-05-07 10:45 40.26910 -3.16836 5978 ft 225 kts 294°
2026-05-07 10:45 40.27542 -3.18695 5982 ft 223 kts 293°
2026-05-07 10:46 40.28162 -3.20559 5979 ft 223 kts 293°
2026-05-07 10:46 40.28781 -3.22424 5977 ft 223 kts 293°
2026-05-07 10:46 40.29359 -3.24162 5974 ft 223 kts 293°
2026-05-07 10:46 40.29975 -3.26013 5975 ft 223 kts 293°
2026-05-07 10:47 40.30595 -3.27873 5973 ft 223 kts 293°
2026-05-07 10:47 40.31217 -3.29736 5968 ft 223 kts 293°
2026-05-07 10:47 40.31838 -3.31598 5967 ft 223 kts 293°
2026-05-07 10:47 40.32457 -3.33457 5968 ft 223 kts 293°
2026-05-07 10:48 40.33069 -3.35291 5967 ft 212 kts 293°
2026-05-07 10:48 40.33633 -3.36987 5859 ft 199 kts 293°
2026-05-07 10:48 40.34191 -3.38663 5417 ft 202 kts 293°
2026-05-07 10:48 40.34830 -3.40302 5097 ft 195 kts 304°
2026-05-07 10:49 40.35664 -3.41606 4857 ft 181 kts 316°
2026-05-07 10:49 40.36574 -3.42659 4622 ft 168 kts 321°
2026-05-07 10:49 40.37440 -3.43549 4396 ft 148 kts 322°
2026-05-07 10:49 40.38211 -3.44333 4198 ft 134 kts 322°
2026-05-07 10:50 40.38954 -3.45086 4018 ft 135 kts 322°
2026-05-07 10:50 40.39691 -3.45834 3837 ft 133 kts 322°
2026-05-07 10:50 40.40425 -3.46580 3665 ft 133 kts 322°
2026-05-07 10:50 40.41128 -3.47293 3504 ft 133 kts 322°
2026-05-07 10:51 40.41832 -3.48009 3326 ft 133 kts 322°
2026-05-07 10:51 40.42562 -3.48750 3150 ft 133 kts 323°
2026-05-07 10:51 40.43292 -3.49493 2969 ft 133 kts 323°
2026-05-07 10:51 40.44023 -3.50240 2789 ft 134 kts 323°
2026-05-07 10:52 40.44745 -3.51009 2618 ft 134 kts 322°
2026-05-07 10:52 40.45477 -3.51765 2418 ft 134 kts 324°
2026-05-07 10:52 40.46227 -3.52484 2211 ft 135 kts 323°
2026-05-07 10:52 40.46966 -3.53244 1998 ft 136 kts 322°
2026-05-07 10:53 40.47663 -3.53942 1922 ft 113 kts 322°
2026-05-07 10:53 40.48039 -3.54324 1932 ft 47 kts 322°
2026-05-07 10:53 40.48302 -3.54595 1934 ft 49 kts 322°
2026-05-07 10:53 40.48578 -3.54873 1944 ft 50 kts 322°
2026-05-07 10:54 40.48794 -3.55176 1952 ft 35 kts 289°
2026-05-07 10:54 40.48839 -3.55336 1951 ft 4 kts 293°
2026-05-07 10:54 40.48871 -3.55435 1953 ft 18 kts 294°
2026-05-07 10:54 40.48975 -3.55550 1953 ft 25 kts 326°
2026-05-07 10:55 40.49136 -3.55710 1958 ft 32 kts 322°